Weather History for Park Rapids, MN

Change the Weather History Date:

Tuesday, January 8, 2013

  Actual Average Record
Temperature  
Mean Temperature 18 °F -  
Max Temperature 30 °F 12 °F 45 °F (2002)
Min Temperature 6 °F -9 °F -32 °F (1973)
Degree Days  
Heating Degree Days 47    
Moisture  
Dew Point 13 °F    
Average Humidity 87    
Maximum Humidity 93    
Minimum Humidity 75    
Precipitation  
Precipitation 0.00 in - - ()
Sea Level Pressure  
Sea Level Pressure 29.83 in    
Wind  
Wind Speed 4 mph (SSE)    
Max Wind Speed 20 mph    
Max Gust Speed -    
Visibility 5 miles    
Events Fog , Snow    
Averages and records for this station are not official NWS values.
T = Trace of Precipitation, MM = Missing Value Source: NWS Daily Summary

Daily Weather History Graph

Daily Weather History Graph

Search for Another Location

Airport:

Trip Planner

Search our weather history database for the weather conditions in past years. The results will help you decide how hot, cold, wet, or windy it might be!

Date:

Astronomy

Jan. 08, 2013 Rise Set
Actual Time 8:04 AM CST 4:50 PM CST
Civil Twilight 7:29 AM CST 5:24 PM CST
Nautical Twilight 6:51 AM CST 6:03 PM CST
Astronomical Twilight 6:14 AM CST 6:39 PM CST
Moon 4:37 AM CST (1/8) 1:53 PM CST (1/8)
Length of Visible Light 9h 55m
Length of Day
8h 45m
Waning Crescent, 13% of the Moon is Illuminated
Jan 8
Waning Crescent
Jan 11
New
Jan 18
First Quarter
Jan 26
Full
Feb 3
Last Quarter

Hourly Weather History & Observations

Time (CST) Temp. Windchill Dew Point Humidity Pressure Visibility Wind Dir Wind Speed Gust Speed Precip Events Conditions
12:18 AM 12.2 °F - 8.6 °F 85% 29.86 in 1.5 mi Calm Calm - N/A   Clear
12:27 AM 10.4 °F - 8.6 °F 92% 29.86 in 0.5 mi Calm Calm - N/A Fog Light Freezing Fog
12:34 AM 10.4 °F - 6.8 °F 85% 29.86 in 2.5 mi Calm Calm - N/A   Clear
12:49 AM 10.4 °F - 8.6 °F 92% 29.86 in 1.5 mi Calm Calm - N/A   Clear
12:53 AM 10.9 °F - 8.1 °F 88% 29.94 in 1.0 mi Calm Calm - N/A   Clear
1:05 AM 12.2 °F - 10.4 °F 92% 29.86 in 0.8 mi Calm Calm - N/A   Clear
1:13 AM 6.8 °F - 3.2 °F 85% 29.87 in 0.8 mi Calm Calm - N/A   Mist
1:24 AM 8.6 °F -1.3 °F 6.8 °F 92% 29.87 in 0.2 mi SSE 5.8 mph - N/A Fog Light Freezing Fog
1:30 AM 10.4 °F 2.2 °F 8.6 °F 92% 29.86 in 0.5 mi SSE 4.6 mph - N/A Fog Light Freezing Fog
1:38 AM 10.4 °F 2.2 °F 8.6 °F 92% 29.86 in 2.5 mi South 4.6 mph - N/A   Partly Cloudy
1:45 AM 10.4 °F 2.2 °F 8.6 °F 92% 29.86 in 7.0 mi South 4.6 mph - N/A   Partly Cloudy
1:53 AM 10.9 °F 1.4 °F 9.0 °F 92% 29.94 in 7.0 mi South 5.8 mph - N/A   Clear
2:53 AM 10.0 °F 0.4 °F 6.1 °F 84% 29.93 in 10.0 mi SE 5.8 mph - N/A   Clear
3:04 AM 12.2 °F 2.9 °F 8.6 °F 85% 29.86 in 9.0 mi SE 5.8 mph - N/A   Scattered Clouds
3:16 AM 12.2 °F 6.1 °F 10.4 °F 92% 29.86 in 9.0 mi SE 3.5 mph - N/A   Mostly Cloudy
3:39 AM 10.4 °F 2.2 °F 6.8 °F 85% 29.85 in 8.0 mi SSE 4.6 mph - N/A   Scattered Clouds
3:53 AM 8.1 °F -0.5 °F 5.0 °F 87% 29.93 in 2.5 mi SSE 4.6 mph - N/A   Clear
4:07 AM 10.4 °F 0.8 °F 6.8 °F 85% 29.84 in 1.8 mi SSE 5.8 mph - N/A   Partly Cloudy
4:12 AM 8.6 °F 0.1 °F 6.8 °F 92% 29.84 in 3.0 mi SE 4.6 mph - N/A   Scattered Clouds
4:22 AM 10.4 °F 4.0 °F 8.6 °F 92% 29.85 in 7.0 mi SE 3.5 mph - N/A   Mostly Cloudy
4:53 AM 12.0 °F 5.9 °F 8.1 °F 84% 29.93 in 7.0 mi SE 3.5 mph - N/A   Mostly Cloudy
5:08 AM 10.4 °F -0.4 °F 8.6 °F 92% 29.85 in 1.5 mi SE 6.9 mph - N/A   Overcast
5:17 AM 12.2 °F 4.3 °F 10.4 °F 92% 29.84 in 0.5 mi ESE 4.6 mph - N/A Fog Light Freezing Fog
5:32 AM 10.4 °F 2.2 °F 8.6 °F 92% 29.84 in 0.8 mi ESE 4.6 mph - N/A   Overcast
5:53 AM 10.0 °F 3.6 °F 7.0 °F 87% 29.92 in 1.0 mi ESE 3.5 mph - N/A   Overcast
6:16 AM 8.6 °F 0.1 °F 6.8 °F 92% 29.84 in 0.5 mi SE 4.6 mph - N/A Fog Light Freezing Fog
6:36 AM 8.6 °F 2.0 °F 6.8 °F 92% 29.83 in 2.0 mi East 3.5 mph - N/A   Overcast
6:43 AM 10.4 °F - 6.8 °F 85% 29.83 in 7.0 mi Calm Calm - N/A   Overcast
6:53 AM 9.0 °F - 6.1 °F 88% 29.92 in 7.0 mi Calm Calm - N/A   Overcast
7:11 AM 8.6 °F 0.1 °F 6.8 °F 92% 29.84 in 1.8 mi SE 4.6 mph - N/A   Overcast
7:23 AM 10.4 °F 2.2 °F 6.8 °F 85% 29.83 in 3.0 mi ESE 4.6 mph - N/A   Overcast
7:41 AM 10.4 °F 0.8 °F 8.6 °F 92% 29.83 in 1.8 mi ESE 5.8 mph - N/A   Overcast
7:51 AM 10.4 °F - 8.6 °F 92% 29.83 in 4.0 mi Calm Calm - N/A   Overcast
7:53 AM 10.0 °F - 7.0 °F 87% 29.93 in 6.0 mi Calm Calm - N/A   Overcast
8:08 AM 10.4 °F 2.2 °F 6.8 °F 85% 29.84 in 1.8 mi SE 4.6 mph - N/A   Overcast
8:22 AM 10.4 °F 0.8 °F 8.6 °F 92% 29.83 in 3.0 mi East 5.8 mph - N/A   Mostly Cloudy
8:37 AM 12.2 °F 6.1 °F 10.4 °F 92% 29.83 in 8.0 mi East 3.5 mph - N/A   Scattered Clouds
8:53 AM 12.9 °F 6.9 °F 10.0 °F 88% 29.92 in 9.0 mi SE 3.5 mph - N/A   Partly Cloudy
9:53 AM 16.0 °F 7.4 °F 12.9 °F 88% 29.92 in 10.0 mi SE 5.8 mph - N/A   Overcast
10:49 AM 19.4 °F 8.6 °F 15.8 °F 86% 29.81 in 1.8 mi SSE 9.2 mph - 0.00 in Snow Light Snow
10:53 AM 19.9 °F 9.3 °F 17.1 °F 89% 29.90 in 1.5 mi SSE 9.2 mph - 0.00 in Snow Light Snow
11:00 AM 19.4 °F 7.2 °F 17.6 °F 93% 29.82 in 0.8 mi SSE 11.5 mph - 0.00 in Snow Light Snow
11:17 AM 21.2 °F 10.9 °F 17.6 °F 86% 29.81 in 1.0 mi SSE 9.2 mph - 0.00 in Snow Light Snow
11:25 AM 21.2 °F 12.6 °F 19.4 °F 93% 29.79 in 0.8 mi SE 6.9 mph - 0.00 in Snow Light Snow
11:31 AM 21.2 °F 11.7 °F 19.4 °F 93% 29.79 in 2.0 mi SSE 8.1 mph - 0.00 in Snow Light Snow
11:34 AM 21.2 °F 12.6 °F 19.4 °F 93% 29.79 in 6.0 mi SE 6.9 mph - 0.00 in Snow Light Snow
11:53 AM 23.0 °F 13.1 °F 21.0 °F 92% 29.85 in 10.0 mi SE 9.2 mph - 0.00 in   Overcast
12:53 PM 25.0 °F 14.8 °F 21.9 °F 88% 29.79 in 10.0 mi SE 10.4 mph - N/A   Overcast
1:53 PM 28.0 °F 22.8 °F 23.0 °F 81% 29.74 in 10.0 mi ESE 4.6 mph - N/A   Overcast
2:53 PM 28.9 °F 20.4 °F 21.9 °F 75% 29.74 in 10.0 mi SE 9.2 mph - N/A   Overcast
3:53 PM 28.9 °F 20.4 °F 23.0 °F 78% 29.71 in 10.0 mi SSE 9.2 mph - N/A   Overcast
4:49 PM 30.2 °F 21.3 °F 23.0 °F 75% 29.66 in 10.0 mi South 10.4 mph - N/A   Overcast
4:53 PM 30.0 °F 22.4 °F 23.0 °F 75% 29.74 in 10.0 mi SSW 8.1 mph - N/A   Overcast
5:53 PM 28.4 °F 19.7 °F 23.0 °F 80% 29.65 in 10.0 mi South 9.2 mph - N/A   Overcast
6:53 PM 30.0 °F 21.1 °F 24.1 °F 79% 29.74 in 10.0 mi WSW 10.4 mph - N/A   Overcast
7:30 PM 30.2 °F 20.2 °F 24.8 °F 80% 29.67 in 10.0 mi West 12.7 mph - N/A   Overcast
7:53 PM 30.0 °F 21.1 °F 25.0 °F 82% 29.75 in 10.0 mi West 10.4 mph - N/A   Overcast
8:16 PM 26.6 °F 17.5 °F 21.2 °F 80% 29.68 in 10.0 mi West 9.2 mph - N/A   Scattered Clouds
8:53 PM 26.1 °F 16.2 °F 23.0 °F 88% 29.75 in 10.0 mi WSW 10.4 mph - N/A   Clear
9:53 PM 28.0 °F 16.1 °F 23.0 °F 81% 29.77 in 10.0 mi West 16.1 mph - N/A   Clear
10:53 PM 30.0 °F 17.5 °F 23.0 °F 75% 29.78 in 10.0 mi West 19.6 mph - N/A   Partly Cloudy
11:53 PM 28.9 °F 19.2 °F 21.9 °F 75% 29.79 in 10.0 mi WSW 11.5 mph - 0.00 in   Scattered Clouds